(230) Athamantis
ephemeris date magn radius delta ra dec elong phase
Today14 Aug 202612.22.246 AU2.291 AU04h15m+24°23'74.6°25.8°
Opposition5 Dec 202610.02.293 AU1.309 AU04h52m+18°31'175.9°1.8°
(230) Athamantis - 2026-08-14
astro.vanbuitenen.nl


 
-1 year
-1 month
-1 day
Now
+1 day
+1 month
+1 year

The interactive orbit chart above shows the body's path through the solar system and its position at the given date. Green and blue lines are shown perpendicular to the ecliptic plane: Green if the path is above the ecliptic plane, blue if it is below. (Left-click and drag to rotate the view; Right-click and drag to move the view; Use scroll wheel to zoom in our out.)

The orbital elements of Athamantis are:

            e (Eccentricity)                : 0.0609515
            a (Semimajor axis)              : 2.3819680
            i (Inclination)                 : 9.45497
            Ω (Longitude of ascending node) : 239.76225
            ω (Argument of perihelion)      : 139.21205
            M (Mean anomaly)                : 1.12577
            Epoch                           : 2026 Jun 09

            L (Longitude of perihelion)     : 199.36152
            B (Latitude of perihelion)      : 6.16043
            P (Orbital period in years)     : 3.68            
        

The light curve chart below shows the estimated development of the minor planet's magnitude.


The all-sky chart below shows the path of the minor planet over the same period as the light curve. The current position is marked yellow.





The following chart shows the path of the minor planet in the next few days. The field of view is optimized for (~10x50) binoculars and finderscopes.




Ephemerides:
Date       Time       RA (2000)    DEC (2000)    delta   radius  elong  phase   PA    magn
2026-08-14 00:00 UT   04 15 20.4   +24 23 53     2.291    2.246   74.6   25.8   261   12.2 
2026-08-14 03:57 UT   04 15 36.3   +24 24 14     2.289    2.246   74.7   25.8   261   12.2 
2026-08-15 00:00 UT   04 16 56.8   +24 25 55     2.280    2.246   75.2   25.9   261   12.2 
2026-08-16 00:00 UT   04 18 32.5   +24 27 50     2.268    2.246   75.8   25.9   261   12.1 
2026-08-17 00:00 UT   04 20 07.5   +24 29 38     2.257    2.246   76.4   26.0   261   12.1 
2026-08-18 00:00 UT   04 21 41.7   +24 31 21     2.246    2.247   77.0   26.0   261   12.1 
2026-08-19 00:00 UT   04 23 15.3   +24 32 57     2.235    2.247   77.6   26.1   261   12.1 
2026-08-20 00:00 UT   04 24 48.1   +24 34 27     2.223    2.247   78.2   26.2   261   12.1 
2026-08-21 00:00 UT   04 26 20.2   +24 35 51     2.212    2.247   78.8   26.2   261   12.1 
2026-08-22 00:00 UT   04 27 51.5   +24 37 08     2.201    2.248   79.5   26.3   262   12.1 
2026-08-23 00:00 UT   04 29 22.0   +24 38 19     2.189    2.248   80.1   26.3   262   12.1 
2026-08-24 00:00 UT   04 30 51.7   +24 39 24     2.178    2.248   80.7   26.3   262   12.1 
2026-08-25 00:00 UT   04 32 20.6   +24 40 23     2.167    2.248   81.3   26.4   262   12.1 
2026-08-26 00:00 UT   04 33 48.6   +24 41 16     2.155    2.249   82.0   26.4   262   12.1 
2026-08-27 00:00 UT   04 35 15.8   +24 42 03     2.144    2.249   82.6   26.5   262   12.0 
2026-08-28 00:00 UT   04 36 42.1   +24 42 44     2.132    2.249   83.2   26.5   262   12.0 
2026-08-29 00:00 UT   04 38 07.6   +24 43 18     2.121    2.250   83.9   26.5   262   12.0 
2026-08-30 00:00 UT   04 39 32.1   +24 43 47     2.109    2.250   84.5   26.5   262   12.0 
2026-08-31 00:00 UT   04 40 55.6   +24 44 09     2.098    2.250   85.2   26.6   262   12.0 
2026-09-01 00:00 UT   04 42 18.3   +24 44 25     2.086    2.251   85.8   26.6   263   12.0 
2026-09-02 00:00 UT   04 43 39.9   +24 44 36     2.075    2.251   86.5   26.6   263   12.0 
2026-09-03 00:00 UT   04 45 00.6   +24 44 40     2.063    2.251   87.1   26.6   263   12.0 
2026-09-04 00:00 UT   04 46 20.2   +24 44 39     2.052    2.251   87.8   26.6   263   12.0 
2026-09-05 00:00 UT   04 47 38.8   +24 44 31     2.040    2.252   88.5   26.6   263   11.9 
2026-09-06 00:00 UT   04 48 56.3   +24 44 18     2.029    2.252   89.2   26.6   263   11.9 
2026-09-07 00:00 UT   04 50 12.7   +24 43 58     2.017    2.252   89.9   26.6   263   11.9 
2026-09-08 00:00 UT   04 51 28.1   +24 43 33     2.005    2.253   90.5   26.6   263   11.9 


    Terminology:
            
    delta:  distance between minor planet and earth in AU
    radius: distance between minor planet and sun in AU
    magn:   magnitude (brightness) estimate    
    ra:     right ascension in hours (24h = 360deg)
    dec:    declination in degrees
    elong:  elongation in degrees (angle sun-earth-minor planet)    
    phase:  phase angle in degrees (angle sun-minor planet-earth)        
    AU:     Astronomical Unit (mean distance between earth and sun: 149597870.7 km
    

Orbital elements provided by the MPC (Minor Planet Center).
Calculations by a modified version of AAPlus, a C# implementation of the AA+ project by PJ Naughter from the algorithms presented in the book "Astronomical Algorithms" by Jean Meeus.
NGC2000 dso catalog and star labels from VizieR as provided by the Strasbourg astronomical Data Center.
Tycho2 catalog from the ESO archive.